Regional Weather Roundup
Issued by NWS

Home | Current Version | Previous Version | Graphics & Text | Print | Product List | Glossary On
Versions: 1 2 3 4 5 6 7 8 9 10 11 12 13 14 15 16 17 18 19 20 21 22 23 24 25 26 27 28 29 30 31 32 33 34 35 36 37 38 39 40 41 42 43 44 45 46 47 48 49 50
000
ASUS45 KBOU 300507
RWRCO

WEATHER ROUNDUP FOR COLORADO
NATIONAL WEATHER SERVICE DENVER/BOULDER CO
1100 PM MDT FRI APR 29 2016

NOTE: "FAIR" INDICATES FEW OR NO CLOUDS BELOW 12000 FEET WITH NO
SIGNIFICANT WEATHER AND/OR OBSTRUCTIONS TO VISIBILITY.

COZ001>005-013-030-031-300600-
...NORTHWEST COLORADO...

CITY           SKY/WX    TMP DP  RH WIND       PRES   REMARKS
CRAIG          FAIR      37  30  75 N9        29.85S
HAYDEN         FAIR      36  28  75 W9        29.82F
MEEKER         FAIR      37  34  89 CALM      29.85S
MOUNT WERNER   NOT AVBL
STEAMBOAT SPGS CLOUDY    35  33  94 E5        29.82F WCI  31
WALDEN         CLOUDY    30  27  86 NW6       29.74F WCI  24
$$

COZ006>008-011-300600-
...WEST CENTRAL VALLEYS...

CITY           SKY/WX    TMP DP  RH WIND       PRES   REMARKS
GRAND JUNCTION RAIN      43  38  82 N10       29.85R
MONTROSE       CLOUDY    44  35  70 NW5       29.86S
EAGLE          CLOUDY    39  37  93 CALM      29.85F
RIFLE          CLOUDY    43  37  79 CALM      29.83S
DELTA          NOT AVBL
NUCLA          NOT AVBL
$$

COZ017>023-064>068-300600-
...SOUTHWEST COLORADO...

CITY           SKY/WX    TMP DP  RH WIND       PRES   REMARKS
DURANGO        MOCLDY    39  30  70 SW9       29.84S
CORTEZ         FAIR      37  35  92 CALM      29.88R
PAGOSA SPRINGS FAIR      33  33 100 CALM      29.87S
TELLURIDE      LGT SNOW  31  31 100 CALM      29.91S
WOLF CREEK PAS FOG       21  21 100 SW10G22   29.94S VSB 1/4 WCI  10
$$

COZ009-010-012-014-032>034-037-058>063-300600-
...CENTRAL COLORADO...

CITY           SKY/WX    TMP DP  RH WIND       PRES   REMARKS
ASPEN          LGT SNOW  33  31  92 NW3       29.83S FOG
BUENA VISTA    FLURRIES  28  27  94 SE6       29.87F WCI  22
COPPER MTN     NOT AVBL
BERTHOUD PASS  LGT SNOW  14   5  67 CALM      29.86S
COTTONWOOD PAS LGT SNOW  30  27  86 CALM      29.87F
GUNNISON       CLOUDY    36  30  80 NW5       29.86R
KREMMLING      FLURRIES  34  32  93 SE5       29.84F WCI  30
LEADVILLE      LGT SNOW  22  22 100 S7        29.84F FOG     WCI  13
MONARCH PASS   CLOUDY    23  19  86 SE5       29.97F WCI  17
SALIDA         FAIR      32  29  90 SE6       29.95F WCI  26
SUNLIGHT       SNOW     N/A N/A N/A NW3       29.93S VSB 1/4
WILKERSON PASS LGT SNOW N/A N/A N/A CALM      29.88F
$$

COZ069>075-300600-
...SAN LUIS VALLEY/SANGRE DE CRISTO MOUNTAINS...

CITY           SKY/WX    TMP DP  RH WIND       PRES   REMARKS
ALAMOSA        CLOUDY    32  31  96 SE3       29.85F
LA VETA PASS   FLURRIES  23  21  93 MISG      29.86F
SAGUACHE       FLURRIES  32  32 100 SE3       29.86F
$$

COZ035-036-038>040-300600-
...NORTHERN COLORADO FRONT RANGE...

CITY           SKY/WX    TMP DP  RH WIND       PRES   REMARKS
DENVER INTL AP LGT SNOW  33  30  88 N5        29.90S VSB 1   WCI  29
DMNS CITY PARK   N/A     32  32  99 N1        29.91S
AURORA         LGT SNOW  32  32 100 NE3       29.90F FOG
FRONT RANGE AP NOT AVBL
ERIE MUNI ARPT LGT SNOW  33  33  99 CALM      29.91S
BOULDER MUN AP LGT RAIN  34  34 100 CALM      29.91S
CENTENNIAL     LGT SNOW  32  31  96 N5        29.89F VSB 1   WCI  27
BROOMFIELD     NOT AVBL
FORT COLLINS   CLOUDY    36  34  93 N6        29.93S
LONGMONT       MIX PCPN  37  35  93 NE5       29.94R
$$

COZ041-046-047-076>085-087-088-300600-
...PIKES PEAK/PALMER DIVIDE AND SOUTHERN FOOTHILLS...

CITY           SKY/WX    TMP DP  RH WIND       PRES   REMARKS
COLO. SPRINGS  LGT SNOW  32  29  88 CALM      29.89F VSB 1
A. F. ACADEMY  FLURRIES  32  30  93 NW5       29.87S WCI  27
SCHRIEVER AFB  NOT AVBL
ELLICOTT       NOT AVBL
FALCON         LGT SNOW  30  28  95 W5        29.88F WCI  25
FORT CARSON    LGT SNOW  32  32  98 N6        29.87F FOG     WCI  27
LIMON          LGT SNOW  30  29  96 N9        29.87F FOG     WCI  22
MONUMENT HILL  LGT SNOW  28  27  93 N5        29.89F WCI  23
TRINIDAD       LGT SNOW  32  30  92 W6        29.89F FOG     WCI  26
$$

COZ042>045-048>051-090-091-300600-
...NORTHEAST COLORADO...

CITY           SKY/WX    TMP DP  RH WIND       PRES   REMARKS
GREELEY ARPT   CLOUDY    34  32  93 N6        29.93S WCI  29
AKRON          LGT SNOW  31  29  92 N9        29.88F FOG     WCI  23
BURLINGTON     CLOUDY    33  30  88 NW12      29.85F FOG     WCI  24
WRAY           NOT AVBL
STERLING       LGT SNOW  32  32 100 N3        29.90S
HOLYOKE        NOT AVBL
FORT MORGAN    LGT SNOW  32  32  99 NW6       29.91F WCI  27
$$

COZ086-089-092>099-300600-
...SOUTHEAST COLORADO...

CITY           SKY/WX    TMP DP  RH WIND       PRES   REMARKS
PUEBLO         CLOUDY    37  33  85 CALM      29.90F
LA JUNTA       CLOUDY    37  34  89 NW10      29.89F
LAMAR          CLOUDY    37  35  92 N8        29.86F
SPRINGFIELD      N/A     35  34  96 NW13      29.84F WCI  26
$$



USA.gov is the U.S. government's official web portal to all federal, state and local government web resources and services.